Tracking 20041 objects as of 22-Nov-2019
Live streaming from Space Station
objects crossing your sky now

COSMOS 1748

Track COSMOS 1748 now!
10-day predictions
COSMOS 1748 is classified as:


NORAD ID: 16758
Int'l Code: 1986-042A
Perigee: 1,460.9 km
Apogee: 1,476.1 km
Inclination: 74.0 °
Period: 115.1 minutes
Semi major axis: 7839 km
RCS: 0.6965 m2 (medium)
Launch date: June 6, 1986
Source: Commonwealth of Independent States (former USSR) (CIS)
Launch site: PLESETSK MISSILE AND SPACE COMPLEX (PKMTR)
aabbcc
Your satellite tracking list
Your tracking list is empty




NASA's NSSDC Master Catalog

Two Line Element Set (TLE):
1 16758U 86042A   19325.76995198 -.00000025 +00000-0 -57259-4 0  9992
2 16758 074.0186 249.2311 0009707 102.8268 284.5700 12.50745392527825
Source of the keplerian elements: AFSPC